• In Deutschland
  • Länderverzeichnis
  • Für 7 Tage
  • Wassertemperatur
  • Satellitenkarten
  • Wetterkarte
  • Widgets
  • user-avatar
    Anmelden

    Stündliche Wetter Nieder-Ingelheim

    Heute, 21 Juli, Samstag

    Zeit Temperatur Niederschläge Wind Luftdruck Luftfeuchtigkeit
    00:00 +22°C° 0,1 mm 1 m/S 746 mmHg 61%
    01:00 +21°C° 0 mm 1 m/S 745 mmHg 60%
    02:00 +21°C° 0,3 mm 1 m/S 745 mmHg 64%
    03:00 +20°C° 0,3 mm 1 m/S 745 mmHg 68%
    04:00 +20°C° 0,3 mm 1 m/S 745 mmHg 72%
    05:00 +20°C° 0,2 mm 1 m/S 745 mmHg 71%
    06:00 +21°C° 0,2 mm 1 m/S 746 mmHg 71%
    07:00 +21°C° 0 mm 1 m/S 746 mmHg 71%
    08:00 +23°C° 0 mm 1 m/S 746 mmHg 66%
    09:00 +24°C° 0 mm 1 m/S 746 mmHg 60%
    10:00 +26°C° 0 mm 2 m/S 746 mmHg 55%
    11:00 +27°C° 0,5 mm 1 m/S 746 mmHg 53%
    12:00 +28°C° 0,5 mm 1 m/S 746 mmHg 52%
    13:00 +27°C° 0 mm 1 m/S 747 mmHg 58%
    14:00 +27°C° 0,5 mm 1 m/S 747 mmHg 57%
    15:00 +27°C° 0,5 mm 1 m/S 746 mmHg 55%
    16:00 +28°C° 0,5 mm 1 m/S 746 mmHg 54%
    17:00 +27°C° 0,4 mm 1 m/S 746 mmHg 59%
    18:00 +26°C° 0,4 mm 1 m/S 746 mmHg 64%
    19:00 +25°C° 0,4 mm 1 m/S 746 mmHg 69%
    20:00 +24°C° 0,3 mm 1 m/S 746 mmHg 72%
    21:00 +23°C° 0,3 mm 1 m/S 746 mmHg 76%
    22:00 +21°C° 0,3 mm 1 m/S 747 mmHg 79%
    23:00 +21°C° 0,1 mm 1 m/S 747 mmHg 81%

    Morgen, 22 Juli, Sonntag

    Zeit Temperatur Niederschläge Wind Luftdruck Luftfeuchtigkeit
    00:00 +20°C° 0,1 mm 1 m/S 747 mmHg 82%
    01:00 +20°C° 0,1 mm 1 m/S 747 mmHg 83%
    02:00 +19°C° 0 mm 1 m/S 747 mmHg 84%
    03:00 +19°C° 0 mm 1 m/S 747 mmHg 85%
    04:00 +19°C° 0 mm 1 m/S 747 mmHg 86%
    05:00 +19°C° 0 mm 1 m/S 747 mmHg 84%
    06:00 +20°C° 0 mm 1 m/S 748 mmHg 81%
    07:00 +21°C° 0 mm 1 m/S 748 mmHg 79%
    08:00 +22°C° 0,1 mm 1 m/S 748 mmHg 73%
    09:00 +24°C° 0,1 mm 2 m/S 748 mmHg 68%
    10:00 +26°C° 0,1 mm 2 m/S 748 mmHg 62%
    11:00 +27°C° 0,4 mm 2 m/S 748 mmHg 58%
    12:00 +28°C° 0,4 mm 3 m/S 748 mmHg 54%
    13:00 +29°C° 0,4 mm 3 m/S 748 mmHg 50%
    14:00 +29°C° 0,3 mm 3 m/S 748 mmHg 50%
    15:00 +29°C° 0,3 mm 3 m/S 748 mmHg 49%
    16:00 +29°C° 0,3 mm 3 m/S 748 mmHg 49%
    17:00 +28°C° 0,1 mm 3 m/S 748 mmHg 53%
    18:00 +27°C° 0,1 mm 2 m/S 748 mmHg 57%
    19:00 +26°C° 0,1 mm 2 m/S 748 mmHg 61%
    20:00 +25°C° 0 mm 2 m/S 748 mmHg 66%
    21:00 +23°C° 0 mm 2 m/S 749 mmHg 70%
    22:00 +22°C° 0 mm 1 m/S 749 mmHg 75%
    23:00 +21°C° 0 mm 1 m/S 749 mmHg 77%

    übermorgen, 23 Juli, Montag

    Zeit Temperatur Niederschläge Wind Luftdruck Luftfeuchtigkeit
    00:00 +21°C° 0 mm 1 m/S 749 mmHg 79%
    01:00 +20°C° 0 mm 1 m/S 749 mmHg 80%
    02:00 +20°C° 0 mm 1 m/S 749 mmHg 81%
    03:00 +19°C° 0 mm 1 m/S 750 mmHg 82%
    04:00 +19°C° 0 mm 1 m/S 750 mmHg 84%
    05:00 +20°C° 0 mm 1 m/S 750 mmHg 80%
    06:00 +21°C° 0 mm 1 m/S 750 mmHg 76%
    07:00 +21°C° 0 mm 1 m/S 750 mmHg 72%
    08:00 +23°C° 0 mm 1 m/S 750 mmHg 66%
    09:00 +25°C° 0 mm 1 m/S 750 mmHg 59%
    10:00 +27°C° 0 mm 1 m/S 751 mmHg 53%
    11:00 +27°C° 0 mm 1 m/S 750 mmHg 51%
    12:00 +28°C° 0 mm 1 m/S 750 mmHg 49%
    13:00 +29°C° 0 mm 2 m/S 750 mmHg 47%
    14:00 +29°C° 0 mm 2 m/S 750 mmHg 47%
    15:00 +29°C° 0 mm 2 m/S 750 mmHg 48%
    16:00 +29°C° 0 mm 2 m/S 750 mmHg 49%
    17:00 +28°C° 0 mm 2 m/S 750 mmHg 52%
    18:00 +28°C° 0 mm 1 m/S 750 mmHg 56%
    19:00 +27°C° 0 mm 1 m/S 750 mmHg 59%
    20:00 +26°C° 0 mm 1 m/S 750 mmHg 63%
    21:00 +24°C° 0 mm 1 m/S 750 mmHg 66%
    22:00 +23°C° 0 mm 1 m/S 750 mmHg 69%
    23:00 +22°C° 0 mm 1 m/S 750 mmHg 71%

    24 Juli, Dienstag

    Zeit Temperatur Niederschläge Wind Luftdruck Luftfeuchtigkeit
    00:00 +22°C° 0 mm 1 m/S 750 mmHg 73%
    01:00 +21°C° 0 mm 1 m/S 750 mmHg 75%
    02:00 +21°C° 0 mm 1 m/S 750 mmHg 77%
    03:00 +20°C° 0 mm 1 m/S 750 mmHg 79%
    04:00 +20°C° 0 mm 1 m/S 750 mmHg 80%
    05:00 +21°C° 0 mm 1 m/S 750 mmHg 78%
    06:00 +22°C° 0 mm 1 m/S 750 mmHg 75%
    07:00 +23°C° 0 mm 1 m/S 750 mmHg 73%
    08:00 +25°C° 0 mm 1 m/S 750 mmHg 67%
    09:00 +26°C° 0 mm 1 m/S 750 mmHg 60%
    10:00 +28°C° 0 mm 2 m/S 749 mmHg 54%
    11:00 +29°C° 0 mm 2 m/S 749 mmHg 51%
    12:00 +30°C° 0 mm 2 m/S 749 mmHg 48%
    13:00 +31°C° 0 mm 2 m/S 749 mmHg 44%
    14:00 +31°C° 0 mm 2 m/S 748 mmHg 45%
    15:00 +31°C° 0 mm 1 m/S 748 mmHg 46%
    16:00 +30°C° 0 mm 1 m/S 748 mmHg 47%
    17:00 +30°C° 0 mm 1 m/S 748 mmHg 51%
    18:00 +29°C° 0 mm 1 m/S 748 mmHg 55%
    19:00 +29°C° 0 mm 1 m/S 748 mmHg 58%
    20:00 +27°C° 0 mm 1 m/S 748 mmHg 62%
    21:00 +26°C° 0 mm 1 m/S 748 mmHg 65%
    22:00 +24°C° 0 mm 1 m/S 749 mmHg 68%
    23:00 +24°C° 0 mm 1 m/S 749 mmHg 70%

    25 Juli, Mittwoch

    Zeit Temperatur Niederschläge Wind Luftdruck Luftfeuchtigkeit
    00:00 +23°C° 0 mm 1 m/S 749 mmHg 72%
    01:00 +23°C° 0 mm 1 m/S 749 mmHg 74%
    02:00 +22°C° 0 mm 1 m/S 749 mmHg 76%
    03:00 +22°C° 0 mm 1 m/S 749 mmHg 77%
    04:00 +21°C° 0 mm 1 m/S 749 mmHg 79%
    05:00 +22°C° 0 mm 1 m/S 749 mmHg 76%
    06:00 +23°C° 0 mm 1 m/S 749 mmHg 73%
    07:00 +24°C° 0 mm 1 m/S 749 mmHg 71%
    08:00 +26°C° 0 mm 1 m/S 749 mmHg 65%
    09:00 +28°C° 0 mm 1 m/S 749 mmHg 58%
    10:00 +29°C° 0 mm 2 m/S 750 mmHg 52%
    11:00 +30°C° 0 mm 2 m/S 749 mmHg 48%
    12:00 +31°C° 0 mm 2 m/S 749 mmHg 45%
    13:00 +32°C° 0 mm 2 m/S 749 mmHg 41%
    14:00 +32°C° 0 mm 2 m/S 748 mmHg 41%
    15:00 +32°C° 0 mm 2 m/S 748 mmHg 40%
    16:00 +33°C° 0 mm 1 m/S 748 mmHg 39%
    17:00 +32°C° 0 mm 1 m/S 748 mmHg 43%
    18:00 +31°C° 0 mm 1 m/S 748 mmHg 48%
    19:00 +30°C° 0 mm 1 m/S 748 mmHg 52%
    20:00 +29°C° 0 mm 1 m/S 748 mmHg 55%
    21:00 +27°C° 0 mm 1 m/S 749 mmHg 58%
    22:00 +26°C° 0 mm 1 m/S 749 mmHg 61%
    23:00 +25°C° 0 mm 1 m/S 749 mmHg 64%

    26 Juli, Donnerstag

    Zeit Temperatur Niederschläge Wind Luftdruck Luftfeuchtigkeit
    00:00 +24°C° 0 mm 1 m/S 749 mmHg 67%
    01:00 +24°C° 0 mm 1 m/S 749 mmHg 70%
    02:00 +23°C° 0 mm 1 m/S 749 mmHg 73%
    03:00 +23°C° 0 mm 1 m/S 749 mmHg 75%
    04:00 +22°C° 0 mm 1 m/S 749 mmHg 78%
    05:00 +23°C° 0 mm 1 m/S 749 mmHg 76%
    06:00 +24°C° 0 mm 1 m/S 749 mmHg 75%
    07:00 +24°C° 0 mm 1 m/S 750 mmHg 73%
    08:00 +26°C° 0 mm 1 m/S 750 mmHg 67%
    09:00 +28°C° 0 mm 2 m/S 750 mmHg 60%
    10:00 +30°C° 0 mm 2 m/S 750 mmHg 54%
    11:00 +31°C° 0 mm 2 m/S 750 mmHg 50%
    12:00 +32°C° 0 mm 2 m/S 750 mmHg 45%
    13:00 +34°C° 0 mm 2 m/S 750 mmHg 41%
    14:00 +34°C° 0 mm 2 m/S 749 mmHg 40%
    15:00 +34°C° 0 mm 2 m/S 749 mmHg 39%
    16:00 +34°C° 0 mm 2 m/S 749 mmHg 38%
    17:00 +32°C° 0 mm 2 m/S 749 mmHg 42%
    18:00 +31°C° 0 mm 2 m/S 749 mmHg 47%
    19:00 +30°C° 0 mm 2 m/S 749 mmHg 51%
    20:00 +29°C° 0 mm 2 m/S 749 mmHg 54%
    21:00 +27°C° 0 mm 2 m/S 750 mmHg 56%
    22:00 +26°C° 0 mm 2 m/S 750 mmHg 59%
    23:00 +25°C° 0 mm 2 m/S 750 mmHg 62%
    Mehr zeigen